Location: Marse
(42.1502°N, 110.9866°W)
Time: 11:35:12
(UTC+00:00)

KKS-1 - Visible Passes

Search period start: 25 June 2022 00:00
Search period end: 05 July 2022 00:00
Orbit: 636 x 647 km, 98.2° (Epoch: 24 June)

Date Brightness Start Highest point End Pass type
(mag) Time Alt. Az. Time Alt. Az. Time Alt. Az.
25 Jun ? 04:44:11 10° NE 04:48:07 29° E 04:49:29 24° SE visible
25 Jun ? 06:20:45 10° N 06:24:31 27° WNW 06:27:06 16° WSW visible
26 Jun ? 05:07:49 10° NNE 05:12:12 52° E 05:13:45 35° SSE visible
26 Jun ? 06:45:30 10° NNW 06:48:17 16° WNW 06:51:04 10° WSW visible
27 Jun ? 05:31:43 10° NNE 05:36:13 86° WNW 05:38:00 36° SSW visible
28 Jun ? 04:20:33 10° NE 04:23:23 16° E 04:24:38 15° ESE visible
28 Jun ? 05:55:50 10° N 06:00:09 48° WNW 06:02:16 27° SW visible
29 Jun ? 04:43:40 10° NE 04:47:33 28° E 04:48:54 24° SE visible
29 Jun ? 06:20:12 10° N 06:23:59 28° WNW 06:26:31 17° WSW visible
30 Jun ? 05:07:17 10° NNE 05:11:40 51° E 05:13:08 35° SSE visible
30 Jun ? 06:44:55 10° NNW 06:47:45 17° WNW 06:50:35 10° WSW visible
01 Jul ? 05:31:10 10° NNE 05:35:40 88° W 05:37:23 38° SSW visible
02 Jul ? 04:20:04 10° NE 04:22:49 16° E 04:24:00 15° ESE visible
02 Jul ? 05:55:16 10° N 05:59:36 49° WNW 06:01:38 28° SW visible
03 Jul ? 04:43:09 10° NE 04:47:00 28° E 04:48:15 24° SE visible
03 Jul ? 06:19:37 10° N 06:23:26 28° WNW 06:25:51 18° WSW visible
04 Jul ? 05:06:45 10° NNE 05:11:06 49° E 05:12:29 36° SSE visible
04 Jul ? 06:44:19 10° NNW 06:47:12 17° WNW 06:50:05 10° WSW visible
